Regional Weather Roundup
Issued by NWS Grand Forks, ND

Home | Current Version | Previous Version | Text Only | Print | Product List | Glossary Off
Versions: 1 2 3 4 5 6 7 8 9 10 11 12 13 14 15 16 17 18 19 20 21 22 23 24 25 26 27 28 29 30 31 32 33 34 35 36 37 38 39 40 41 42 43 44 45 46 47 48 49 50

000
ASUS43 KFGF 261610
RWRFGF
PRAIRIE TO PINES  WEATHER ROUNDUP
NATIONAL WEATHER SERVICE EASTERN NORTH DAKOTA/GRAND FORKS ND
1100 AM CDT THU MAY 26 2016

 **SATELLITE DATA USED TO AUGMENT SKY COVER AT AUTOMATED STATIONS**
 *****  WEATHER ACROSS EASTERN NORTH DAKOTA  *****

CITY           SKY/WX    TMP DP  RH WIND       PRES   REMARKS
GRAND FORKS    PTSUNNY   66  58  75 SW15      29.72S
GRAND FRKS AFB CLOUDY    64  57  77 W9        29.73S
GRAND FRKS NWS   N/A     64 N/A N/A SW14        N/A
DEVILS LAKE    CLOUDY    58  54  86 NW7       29.77R
FARGO          CLOUDY    64  58  80 W9        29.77R
WAHPETON ARPT  MOSUNNY   64  52  63 W14       29.80R
$$

 ***** WEATHER ACROSS CENTRAL AND WESTERN NORTH DAKOTA  *****

CITY           SKY/WX    TMP DP  RH WIND       PRES   REMARKS
BISMARCK       MOSUNNY   66  50  56 VRB5      29.83S
MINOT          LGT RAIN  58  55  90 NE9       29.79R FOG
JAMESTOWN      PTSUNNY   61  55  81 W9        29.80R
MINOT AFB      CLOUDY    57  54  88 E9        29.79R
GARRISON         N/A     59  52  77 W9        29.81R
WILLISTON      CLOUDY    52  48  86 S6        29.82S
DICKINSON      MOSUNNY   59  44  57 NW8       29.82F
HETTINGER      SUNNY     64  42  44 W13       29.86F
$$

 *****  OTHER AIRPORT OBSERVATIONS IN OUR AREA  *****

CITY           SKY/WX    TMP DP  RH WIND       PRES   REMARKS
WALHALLA       FAIR      59  59 100 MISG      29.70R
GRAFTON AIRPOR PTSUNNY   63  57  82 W14       29.73R
VALLEY CITY AR CLOUDY    59  59 100 W15G21    29.81R
CANDO          CLOUDY    59  55  88 N9        29.78S
CAVALIER APRT  PTSUNNY   63  55  77 W15       29.69S
GWINNER        FAIR      66  55  68 W17G28    29.81S
SHEYENNE NWR     N/A     64  56  74 W14       29.95S
ROLLA          PTSUNNY   59  57  94 NW14      29.77S
 ***** THE ABOVE OBSERVATIONS ARE NON NWS ARE NOT QUALITY
       CONTROLLED AND MAY MIS-REPORT RAIN FOR SNOW...
$$

  *****  WEATHER ACROSS NORTHERN MINNESOTA  *****

CITY           SKY/WX    TMP DP  RH WIND       PRES   REMARKS
FLAG ISLAND    CLOUDY    57  55  94 S15       29.69S
WARROAD        CLOUDY    63  57  82 SW9       29.70S
ROSEAU         CLOUDY    63  55  77 SW15      29.70S
HALLOCK        CLOUDY    64  57  77 SW14      29.68S
THF RVR FALLS  PTSUNNY   61  54  77 W10       29.75S
BAUDETTE       PTSUNNY   64  55  72 SW8       29.71F
WASKISH        PTSUNNY   63  57  82 W6        29.74F
CROOKSTON      PTSUNNY   63  57  82 W9        29.75R
STEPHEN NDAWN    N/A     63  57  82 W12         N/A
GREENBUSH NDAW   N/A     61  55  82 SW9         N/A
$$
  *****  WEATHER ACROSS CENTRAL AND WEST MINNESOTA  *****

CITY           SKY/WX    TMP DP  RH WIND       PRES   REMARKS
FOSSTON        PTSUNNY   63  59  88 SW10      29.76R
BEMIDJI        MOSUNNY   64  55  73 S3        29.75S
PARK RAPIDS    SUNNY     69  53  56 W6        29.76S
ELBOW LAKE     FAIR      66  53  62 SW16      29.81S
WADENA         SUNNY     66  55  68 SW15      29.78R
DETROIT LAKES  CLOUDY    63  55  77 SW10      29.79R
MOORHEAD       CLOUDY    59  57  94 W7        29.79R FOG
FERGUS FALLS   PTSUNNY   63  55  77 W12       29.78R
MORRIS MN      SUNNY     70  50  49 W18       29.80F
STAPLES        SUNNY     66  54  63 SW3       29.78S
$$
  *****  WEATHER ELSEWHERE ACROSS MINNESOTA  *****

CITY           SKY/WX    TMP DP  RH WIND       PRES   REMARKS
DULUTH         FOG       53  52  96 E6        29.80S VSB 3/4
INTRNTL FALLS  CLOUDY    60  56  86 SW7       29.75F
ELY            CLOUDY    61  55  82 S6        29.78S
CLOQUET        FOG       52  50  93 S3        29.80R VSB 3/4
WHEATON        SUNNY     72  54  53 W13       29.82S
BRAINERD       SUNNY     69  57  65 W7        29.77F
HIBBING        CLOUDY    55  54  96 VRB5      29.77F
ALEXANDRIA     PTSUNNY   68  54  60 W14       29.82R
SAINT CLOUD    SUNNY     70  56  61 SW7       29.80R
MINNEAPOLIS    SUNNY     72  57  59 W13       29.80F
$$

  *****  WEATHER ACROSS SOUTH DAKOTA  *****

CITY           SKY/WX    TMP DP  RH WIND       PRES   REMARKS
SIOUX FALLS    MOSUNNY   73  53  49 NW7       29.88R
BROOKINGS      SUNNY     68  49  50 NW12      29.86S
WATERTOWN      SUNNY     68  49  50 W10       29.86R
HURON          SUNNY     66  50  56 W3        29.88R
SISSETON         N/A     72  47  40 NW17      29.80S
ABERDEEN       SUNNY     68  51  54 W7        29.85S
MITCHELL       SUNNY     70  49  47 VRB3      29.89R
PIERRE         MOSUNNY   68  55  63 SE8       29.86R
MOBRIDGE       SUNNY     66  50  56 S10       29.83F
RAPID CITY     MOSUNNY   65  44  46 N14       29.90S
$$

  *****  SOME WEATHER IN NEARBY STATES *****

CITY           SKY/WX    TMP DP  RH WIND       PRES   REMARKS
GLASGOW MT     LGT RAIN  50  49  96 W7        29.84S FOG
GREAT FALLS MT CLOUDY    53  48  83 SW12      29.97S
CHEYENNE WY    CLOUDY    59  35  40 SE5       29.99F
SCOTTSBLUFF NE SUNNY     64  42  44 W9        29.95F
OMAHA NE       MOSUNNY   78  61  55 VRB3      29.86F
DES MOINES IA  MOSUNNY   74  61  63 SE8       29.89S
DAVENPORT IA   PTSUNNY   74  62  66 SW6       29.92S
CHICAGO IL     CLOUDY    75  64  68 SW9       29.93R
EAU CLAIRE WI  CLOUDY    69  60  73 W12       29.81F
LA CROSSE WI   SUNNY     71  60  68 VRB5      29.85R
$$

  *****  SOME NATIONAL WEATHER *****

CITY           SKY/WX    TMP DP  RH WIND       PRES   REMARKS
LA GUARDIA NY  PTSUNNY   88  57  34 SW7       30.07F
RALEIGH NC     MOSUNNY   85  62  46 W6        30.17S
ATLANTA GA     MOSUNNY   83  61  47 SW6       30.19F
NEW ORLEANS LA PTSUNNY   86  71  60 S9        30.10F HX  91
OKLAHOMA CITY  PTSUNNY   83  74  74 S26G35    29.84F
ALBUQUERQUE NM MOSUNNY   65  20  17 VRB7      29.97F
SALT LAKE CITY MOSUNNY   61  45  55 W5        30.01F
LOS ANGELES CA PTSUNNY   63  51  65 SE6       30.07F
BOISE ID       SUNNY     60  42  51 VRB7      30.03S
SEATTLE WA     CLOUDY    53  44  71 S10       30.20S
$$

*** WEATHER ACROSS MANITOBA...SASKATCHEWAN AND ONTARIO ***
                ***ONTARIO***

CITY           SKY/WX    TMP DP  RH WIND       PRES   REMARKS
GERALDTON      PTSUNNY   59  50  72 E7        29.88F
THUNDER BAY    DRIZZLE   55  54  94 E9        29.83S FOG
SIOUX LOOKOUT  LGT RAIN  57  55  94 SE5       29.77R
TORONTO        PTSUNNY   72  55  56 SE7       29.99S
BIG TROUT LK   MOSUNNY   64  45  48 SE3       29.84F
PICKLE LAKE    CLOUDY    63  46  55 SE10      29.83F
DRYDEN         CLOUDY    57  55  94 SE8       29.75S
KENORA         LGT RAIN  59  55  88 S10G17    29.71S
$$
                *** MANITOBA***

CITY           SKY/WX    TMP DP  RH WIND       PRES   REMARKS
BRANDON        LGT RAIN  59  54  82 N16       29.76S
DAUPHIN        CLOUDY    57  55  94 N8        29.78S
ISLAND LAKE    PTSUNNY   68  54  60 SE5       29.79S
PILOT MOUND      N/A     55  54  94 NW14        N/A
THE PAS        MOSUNNY   70  48  46 N7        29.82S
THOMPSON       PTSUNNY   66  50  55 N14G20    29.82R
WINNIPEG       CLOUDY    59  57  94 SE3       29.63R
LYNN LAKE      CLOUDY    43  36  75 NE14G20   29.96R
CHURCHILL      CLOUDY    34  32  93 NE15      29.98R FOG     WCI  24
GILLAM         PTSUNNY   63  52  67 N5        29.81S
$$
                ***SASKATCHEWAN***

CITY           SKY/WX    TMP DP  RH WIND       PRES   REMARKS
ESTEVAN        LGT RAIN  55  54  94 E13       29.81R FOG
KINDERSLEY     MOSUNNY   63  45  51 NE5       29.91S
LLOYDMINSTER   MOSUNNY   64  45  48 S6        29.89S
PRINCE ALBERT  MOSUNNY   68  48  49 N6        29.86S
REGINA         LGT RAIN  55  52  88 NE12G17   29.87R
YORKTON        SUNNY     61  54  77 NW12      29.84S
N. BATTLEFORD  SUNNY     63  46  55 VRB3      29.91F
LA RONGE       MOSUNNY   61  50  67 NE10      29.88R
SASKATOON      PTSUNNY   64  48  55 E6        29.90S
SWIFT CURRENT  CLOUDY    54  50  87 N10       29.90S
$$
NOTE: THESE ARE AUTOMATED STATIONS WITH LIMITED QUALITY CONTROL
      "FAIR" INDICATES FEW OR NO CLOUDS BELOW 12,000 FEET WITH NO
      SIGNIFICANT WEATHER AND/OR OBSTRUCTIONS TO VISIBILITY.
      SKY/WX - SKY CONDITION AND SIGNIFICANT WEATHER.
      TMP - AIR TEMPERATURE.    DP   - DEWPOINT TEMPERATURE.
      RH  - RELATIVE HUMIDITY.  PRES - PRESSURE.
      HX  - HEAT INDEX.         WCI  - WIND CHILL INDEX.
$




USA.gov is the U.S. government's official web portal to all federal, state and local government web resources and services.